TimeCDT,TemperatureF,Dew PointF,Humidity,Sea Level PressureIn,VisibilityMPH,Wind Direction,Wind SpeedMPH,Gust SpeedMPH,PrecipitationIn,Events,Conditions,WindDirDegrees,DateUTC
12:15 AM,63.0,58.5,85,30.10,10.0,ESE,10.4,16.1,N/A,,Mostly Cloudy,110,2013-05-24 05:15:00
12:35 AM,63.0,58.5,85,30.10,10.0,ESE,9.2,-,N/A,,Overcast,110,2013-05-24 05:35:00
12:55 AM,62.6,58.1,85,30.11,10.0,ESE,11.5,-,N/A,,Overcast,120,2013-05-24 05:55:00
1:15 AM,62.2,58.1,86,30.11,10.0,ESE,11.5,-,N/A,,Overcast,110,2013-05-24 06:15:00
1:35 AM,61.9,58.1,87,30.12,10.0,ESE,12.7,16.1,N/A,,Overcast,120,2013-05-24 06:35:00
1:55 AM,61.9,58.1,87,30.12,10.0,ESE,5.8,-,N/A,,Overcast,120,2013-05-24 06:55:00
2:15 AM,61.9,58.1,87,30.11,10.0,East,9.2,-,N/A,,Overcast,100,2013-05-24 07:15:00
2:35 AM,61.9,58.1,87,30.11,10.0,ESE,9.2,-,N/A,,Overcast,110,2013-05-24 07:35:00
2:55 AM,61.7,58.1,88,30.11,10.0,ESE,8.1,-,N/A,,Overcast,110,2013-05-24 07:55:00
3:15 AM,61.7,58.1,88,30.12,10.0,ESE,8.1,-,N/A,,Overcast,110,2013-05-24 08:15:00
3:35 AM,61.7,57.7,87,30.12,10.0,East,3.5,-,N/A,,Overcast,100,2013-05-24 08:35:00
3:55 AM,61.7,57.6,86,30.12,10.0,ESE,8.1,-,N/A,,Overcast,120,2013-05-24 08:55:00
4:15 AM,62.1,57.6,85,30.13,10.0,ESE,6.9,-,N/A,,Overcast,110,2013-05-24 09:15:00
4:35 AM,61.9,57.2,85,30.13,10.0,ESE,11.5,-,N/A,,Overcast,110,2013-05-24 09:35:00
4:55 AM,61.7,56.8,84,30.13,10.0,SE,9.2,-,N/A,,Overcast,130,2013-05-24 09:55:00
5:15 AM,61.7,56.7,84,30.13,10.0,SE,9.2,-,N/A,,Overcast,130,2013-05-24 10:15:00
5:35 AM,61.7,56.5,83,30.13,10.0,SE,10.4,17.3,N/A,,Overcast,130,2013-05-24 10:35:00
5:55 AM,61.2,56.3,84,30.12,10.0,SE,11.5,-,N/A,,Overcast,130,2013-05-24 10:55:00
6:15 AM,61.2,56.5,85,30.13,10.0,SE,10.4,-,N/A,,Overcast,130,2013-05-24 11:15:00
6:35 AM,61.2,56.7,85,30.12,10.0,ESE,10.4,-,N/A,,Overcast,120,2013-05-24 11:35:00
6:55 AM,61.0,57.2,87,30.12,10.0,SE,12.7,-,N/A,,Overcast,130,2013-05-24 11:55:00
7:15 AM,61.2,57.2,87,30.12,10.0,ESE,5.8,16.1,N/A,,Overcast,120,2013-05-24 12:15:00
7:35 AM,61.3,57.2,86,30.14,10.0,ESE,8.1,-,N/A,,Overcast,120,2013-05-24 12:35:00
7:55 AM,61.7,58.1,88,30.14,7.0,SE,9.2,-,N/A,,Overcast,130,2013-05-24 12:55:00
8:15 AM,61.9,58.1,87,30.16,7.0,ESE,4.6,-,N/A,,Overcast,110,2013-05-24 13:15:00
8:35 AM,62.6,58.5,86,30.16,7.0,ESE,5.8,-,N/A,,Overcast,110,2013-05-24 13:35:00
8:55 AM,63.1,59.0,86,30.16,7.0,ESE,6.9,-,N/A,,Overcast,120,2013-05-24 13:55:00
9:35 AM,63.1,59.9,89,30.17,4.0,SE,9.2,-,N/A,,Overcast,130,2013-05-24 14:35:00
9:55 AM,62.8,60.1,91,30.16,4.0,SE,10.4,-,N/A,,Overcast,130,2013-05-24 14:55:00
10:15 AM,63.9,61.0,90,30.16,5.0,ESE,10.4,-,N/A,,Overcast,120,2013-05-24 15:15:00
10:35 AM,65.3,61.3,87,30.16,7.0,ESE,9.2,-,N/A,,Overcast,120,2013-05-24 15:35:00
11:15 AM,68.0,62.6,83,30.16,7.0,SSE,6.9,-,N/A,,Overcast,160,2013-05-24 16:15:00
11:35 AM,69.4,63.5,81,30.16,7.0,SSE,9.2,-,N/A,,Overcast,150,2013-05-24 16:35:00
11:55 AM,71.1,64.0,78,30.15,7.0,SSE,8.1,-,N/A,,Overcast,150,2013-05-24 16:55:00
12:15 PM,72.5,64.4,76,30.14,7.0,South,8.1,-,N/A,,Overcast,170,2013-05-24 17:15:00
12:35 PM,73.4,65.1,75,30.15,7.0,SSE,11.5,-,N/A,,Overcast,160,2013-05-24 17:35:00
1:15 PM,75.2,65.1,71,30.13,7.0,South,10.4,17.3,N/A,,Mostly Cloudy,170,2013-05-24 18:15:00
1:55 PM,79.3,63.9,59,30.12,7.0,SSE,18.4,23.0,N/A,,Scattered Clouds,150,2013-05-24 18:55:00
2:15 PM,80.2,62.2,54,30.11,10.0,South,18.4,25.3,N/A,,Scattered Clouds,170,2013-05-24 19:15:00
2:35 PM,81.9,62.1,51,30.10,10.0,South,18.4,26.5,N/A,,Clear,180,2013-05-24 19:35:00
2:55 PM,82.8,62.8,51,30.09,10.0,South,17.3,24.2,N/A,,Scattered Clouds,180,2013-05-24 19:55:00
3:15 PM,84.7,61.0,45,30.08,10.0,South,18.4,25.3,N/A,,Clear,180,2013-05-24 20:15:00
3:35 PM,84.6,59.9,43,30.07,10.0,South,21.9,28.8,N/A,,Clear,180,2013-05-24 20:35:00
3:55 PM,85.1,59.7,42,30.06,10.0,South,21.9,28.8,N/A,,Clear,180,2013-05-24 20:55:00
4:35 PM,86.4,59.7,40,30.04,10.0,South,19.6,29.9,N/A,,Clear,180,2013-05-24 21:35:00
5:15 PM,87.6,55.2,33,30.02,10.0,South,20.7,27.6,N/A,,Clear,190,2013-05-24 22:15:00
5:35 PM,90.0,49.8,25,30.01,10.0,South,21.9,31.1,N/A,,Clear,190,2013-05-24 22:35:00
5:55 PM,90.5,49.8,25,30.01,10.0,South,19.6,31.1,N/A,,Clear,190,2013-05-24 22:55:00
6:15 PM,90.3,50.5,26,30.00,10.0,South,24.2,29.9,N/A,,Clear,190,2013-05-24 23:15:00
6:55 PM,88.9,52.0,28,29.99,10.0,South,16.1,29.9,N/A,,Clear,190,2013-05-24 23:55:00
7:15 PM,87.8,52.9,30,29.99,10.0,South,21.9,28.8,N/A,,Clear,190,2013-05-25 00:15:00
7:35 PM,87.8,54.1,32,29.98,10.0,South,20.7,27.6,N/A,,Clear,180,2013-05-25 00:35:00
7:55 PM,86.5,54.7,34,29.99,10.0,South,20.7,27.6,N/A,,Clear,170,2013-05-25 00:55:00
8:15 PM,84.6,59.9,43,30.00,10.0,SSE,25.3,32.2,N/A,,Scattered Clouds,150,2013-05-25 01:15:00
8:35 PM,79.2,61.3,54,30.01,10.0,SSE,19.6,27.6,N/A,Thunderstorm,Mostly Cloudy,160,2013-05-25 01:35:00
8:55 PM,77.4,62.2,59,30.02,10.0,SE,19.6,26.5,N/A,,Clear,140,2013-05-25 01:55:00
9:15 PM,76.1,63.7,65,30.02,10.0,SSE,17.3,25.3,N/A,,Clear,150,2013-05-25 02:15:00
9:35 PM,75.4,63.5,66,30.02,10.0,SSE,17.3,25.3,N/A,,Clear,160,2013-05-25 02:35:00
9:55 PM,75.6,63.0,65,30.04,10.0,SSE,15.0,18.4,N/A,,Clear,160,2013-05-25 02:55:00
10:15 PM,76.1,64.8,68,30.05,10.0,South,20.7,27.6,N/A,,Clear,170,2013-05-25 03:15:00
10:35 PM,75.2,63.1,66,30.06,10.0,South,23.0,31.1,N/A,,Clear,170,2013-05-25 03:35:00
10:55 PM,75.2,60.4,60,30.06,10.0,South,24.2,34.5,N/A,,Clear,180,2013-05-25 03:55:00
11:15 PM,73.8,57.2,56,30.07,10.0,South,25.3,36.8,N/A,,Clear,180,2013-05-25 04:15:00
11:35 PM,72.7,57.6,59,30.07,10.0,South,26.5,34.5,N/A,,Clear,180,2013-05-25 04:35:00
11:55 PM,71.4,57.7,62,30.07,10.0,South,24.2,36.8,N/A,,Clear,190,2013-05-25 04:55:00